Regional Weather Roundup
Issued by NWS Kansas City/Pleasant Hill, MO

Home | Current Version | Previous Version | Graphics & Text | Print | Product List | Glossary Off
Versions: 1 2 3 4 5 6 7 8 9 10 11 12 13 14 15 16 17 18 19 20 21 22 23 24 25 26 27 28 29 30 31 32 33 34 35 36 37 38 39 40 41 42 43 44 45 46 47 48 49 50

960
ASUS43 KEAX 220610
RWREAX

WEATHER ROUNDUP FOR EASTERN KANSAS AND NORTHWEST MISSOURI
NATIONAL WEATHER SERVICE KANSAS CITY/PLEASANT HILL MO
1200 AM CST SUN JAN 22 2017

KSZ040-057-103>105-MOZ028-029-037-043-220700-
...KANSAS CITY METROPOLITAN AREA...

CITY           SKY/WX    TMP DP  RH WIND       PRES   REMARKS
K.C. INTL      CLOUDY    46  41  82 NE7       29.52F
6HR MIN TEMP:  46; 6HR MAX TEMP:  51; 6HR PCP: TRACE;

K.C. DOWNTOWN  LGT RAIN  48  44  86 E6        29.52S
6HR MIN TEMP:  47; 6HR MAX TEMP:  54; 6HR PCP: TRACE;

LEES SUMMIT    CLOUDY    47  45  93 NE7       29.52F
6HR MIN TEMP:  46; 6HR MAX TEMP:  50; 6HR PCP:  0.03;

OLATHE - IXD   CLOUDY    47  43  86 NE6       29.51F
6HR MIN TEMP:  46; 6HR MAX TEMP:  50; 6HR PCP:  0.01;

OLATHE - OJC   CLOUDY    46  44  93 NE5       29.51F
6HR MIN TEMP:  46; 6HR MAX TEMP:  49; 6HR PCP:  0.01;

LAWRENCE       CLOUDY    43  43 100 CALM      29.52F

$$

MOZ001>008-011>017-020>025-030>033-038>040-044>046-053-054-220700-
...NORTHERN AND CENTRAL MISSOURI...

CITY           SKY/WX    TMP DP  RH WIND       PRES   REMARKS
ST. JOSEPH     CLOUDY    43  41  93 N7        29.54F
6HR MIN TEMP:  36; 6HR MAX TEMP:  45;

MOSBY          CLOUDY    45  45 100 CALM      29.53F
WARRENSBURG    DRIZZLE   45  45 100 NE7       29.52F
WHITEMAN AFB   MOCLDY    48  48 100 NE7       29.51F
6HR MIN TEMP:  47; 6HR MAX TEMP:  51; 6HR PCP:  0.02;

CLINTON        CLOUDY    48  45  87 NE7       29.51F FOG
SEDALIA        LGT RAIN  49  45  86 NE7       29.54F
6HR MIN TEMP:  48; 6HR MAX TEMP:  53; 6HR PCP:  0.01;

WARSAW         NOT AVBL
CHILLICOTHE      N/A     43  41  93 CALM      29.57R
6HR MIN TEMP:  37; 6HR MAX TEMP:  44;

KIRKSVILLE     CLOUDY    39  38  96 SE9       29.58R FOG     WCI  33
6HR MIN TEMP:  34; 6HR MAX TEMP:  40;


$$

MOZ041-047>049-056>058-063>065-088>090-097-220700-
...EASTERN AND SOUTHERN MISSOURI...

CITY           SKY/WX    TMP DP  RH WIND       PRES   REMARKS
ST. LOUIS INTL CLOUDY    55  40  56 NE6       29.53F
6HR MIN TEMP:  49; 6HR MAX TEMP:  61;

SPIRIT OF STL  CLOUDY    46  42  86 CALM      29.51F
COLUMBIA       LGT RAIN  49  44  83 S9        29.58R
JEFFERSON CITY LGT RAIN  53  44  71 S5        29.58R
ROLLA          LGT RAIN  50  49  96 NW7       29.52S
OSAGE BEACH    LGT RAIN  48  46  93 NE9       29.51F
SPRINGFIELD    CLOUDY    52  48  86 NE7       29.43F
BRANSON        CLOUDY    50  50 100 S5        29.44S
JOPLIN         TSTM      51  50  96 NW5       29.45R
WEST PLAINS    CLOUDY    56  54  93 NE7       29.45F

$$

IAZ060-094-KSZ022-034>040-054-083-096-NEZ052-066-093-220700-
...KANSAS...SOUTHEAST NEBRASKA AND IOWA...

CITY           SKY/WX    TMP DP  RH WIND       PRES   REMARKS
TOPEKA         CLOUDY    46  43  89 NE3       29.51F
6HR MIN TEMP:  46; 6HR MAX TEMP:  52; 6HR PCP:  0.03;

MANHATTAN      CLOUDY    46  41  82 N5        29.51S
EMPORIA        CLOUDY    45  43  93 NE8       29.48S
CHANUTE        LGT RAIN  50  47  89 NE9       29.45S
WICHITA        CLOUDY    47  42  83 NE13      29.43S
OMAHA          CLEAR     33  29  85 N12       29.57R WCI  24
LINCOLN        CLOUDY    31  29  92 N3        29.59R
FALLS CITY     CLOUDY    36  35  96 CALM      29.55R
LAMONI         FOG       36  35  96 CALM      29.55S VSB 1/4
DES MOINES     FOG       31  30  96 S5        29.56F VSB 1/8 WCI  26

$$





USA.gov is the U.S. government's official web portal to all federal, state and local government web resources and services.